sat.trackr.live / text

‹ back to catalog

ONEWEB-0286

NORAD 49076 · 2021-075B

PAYLOAD ACTIVE UNKNOWN

§ Identity

Operator
Country
UK
Launch date
2021-08-21
Launch site
TYMSC
Launch vehicle
Mass (kg)
RCS (m²)

Purposes: comms

External: N2YO · Heavens-Above · Gunter

§ Orbital elements

Epoch: 2026-09-19T22:58:58.944288Z

Period
109.72 min
Inclination
87.8974°
Eccentricity
0.0002046
Mean motion
13.12441115 rev/d
Perigee alt
1,212.2 km
Apogee alt
1,215.3 km
Semi-major
7,591.9 km
B*
8.7452e-4
RAAN
331.8582°
Arg perigee
103.9753°
Mean anomaly
256.1603°
Rev number
24,699

§ Raw data

ONEWEB-02861 49076U 21075B   26262.95762667  .00000327  00000+0  87452-3 0  99972 49076  87.8974 331.8582 0002046 103.9753 256.1603 13.12441115246997

JSON: /api/v1/satellites/49076 · /tle

For live sub-satellite position, see the globe view (requires WebGL).

§ Visibility from observer

Set your observer location to see the next 7 days of passes ≥ 10°. The values pass through the URL so the page stays shareable.

No JS? Fill the form by hand. The geolocation button needs JavaScript.